Regional Weather Roundup
Issued by NWS Raleigh/Durham, NC

Home | Current Version | Previous Version | Text Only | Print | Product List | Glossary On
Versions: 1 2 3 4 5 6 7 8 9 10 11 12 13 14 15 16 17 18 19 20 21 22 23 24 25 26 27 28 29 30 31 32 33 34 35 36 37 38 39 40 41 42 43 44 45 46 47 48 49 50
000
ASUS42 KRAH 172310
RWRRAH
NORTH CAROLINA WEATHER ROUNDUP
NATIONAL WEATHER SERVICE RALEIGH NC
700 PM EDT WED SEP 17 2014

NOTE: "FAIR" INDICATES FEW OR NO CLOUDS BELOW 12,000 FEET WITH NO
SIGNIFICANT WEATHER AND/OR OBSTRUCTIONS TO VISIBILITY.

NCZ001-053-055-056-065-067-180000-
WESTERN NORTH CAROLINA

CITY           SKY/WX    TMP DP  RH WIND       PRES   REMARKS
ASHEVILLE      NOT AVBL
JEFFERSON      NOT AVBL
MORGANTON      CLEAR     69  63  80 CALM      30.00S
HICKORY        CLEAR     70  62  76 CALM      29.95S
RUTHERFORDTON  MOCLDY    69  64  84 SE7       29.96S
MOUNT AIRY     NOT AVBL
BOONE          PTCLDY    62  56  79 S3        30.03S
$$

NCZ021-022-025-041-071-084-088-180000-
CENTRAL NORTH CAROLINA

CITY           SKY/WX    TMP DP  RH WIND       PRES   REMARKS
CHARLOTTE      NOT AVBL
GREENSBORO     MOCLDY    72  62  71 NE6       29.94S
WINSTON-SALEM  CLEAR     72  60  66 NE6       29.95F
RALEIGH-DURHAM PTCLDY    74  63  68 E7        29.93R
FORT BRAGG     CLEAR     76  69  78 NE3       29.90R
FAYETTEVILLE   PTCLDY    76  69  79 NE5       29.89R
BURLINGTON     PTCLDY    72  61  68 N6        29.93R
LAURINBURG     PTCLDY    78  67  68 NE3       29.90R
$$

NCZ011-015-027-028-043-044-047-080-103-180000-
NORTHEASTERN NORTH CAROLINA

CITY           SKY/WX    TMP DP  RH WIND       PRES   REMARKS
ROCKY MT-WILSO CLEAR     72  64  76 NE5       29.92F
GREENVILLE     MOCLDY    72  63  73 E5        29.95S
WASHINGTON     MOCLDY    71  63  77 NE7       29.93F
ELIZABETH CITY NOT AVBL
MANTEO         PTCLDY    71  61  69 NE12      29.93S
CAPE HATTERAS  CLOUDY    71  64  78 NE9G20    29.90R
$$

NCZ078-087-090-091-093-098-101-180000-
SOUTHEASTERN NORTH CAROLINA

CITY           SKY/WX    TMP DP  RH WIND       PRES   REMARKS
LUMBERTON      CLEAR     78  70  76 CALM      29.89R
GOLDSBORO      PTCLDY    73  72  96 E3        29.90S
KINSTON        MOCLDY    73  64  73 NE8       29.92S
KENANSVILLE    MOCLDY    74  67  80 CALM      29.91R
NEW BERN       CLOUDY    76  65  68 E8        29.92S
CHERRY POINT   MOCLDY    75  65  70 NE10      29.91S
BEAUFORT       PTCLDY    74  69  85 NE10      29.89S
JACKSONVILLE   PTCLDY    74  68  81 E12       29.89S
WILMINGTON     MOCLDY    75  71  87 NE6       29.88R
$$



USA.gov is the U.S. government's official web portal to all federal, state and local government web resources and services.